Location: Kalberh�ni
(46.4610°N, 7.2453°E)
Time: 08:41:17
(UTC+00:00)

X-37B - Pass Details

Date: 19 September 2021
Orbit: 385 x 389 km, 45.0° (Epoch: 13 October)

Event Time Altitude Azimuth Distance (km) Brightness Sun altitude
Rises 04:38:00 0° 199° (SSW) 2,257 4.2 -7.0°
Reaches altitude 10° 04:41:23 10° 160° (SSE) 1,409 3.6 -6.4°
Maximum altitude 04:42:14 11° 145° (SE) 1,362 3.7 -6.3°
Drops below altitude 10° 04:43:07 10° 129° (SE) 1,412 4.1 -6.1°
Sets 04:46:31 0° 90° (E) 2,273 6.9 -5.6°
